{"data":{"norad_id":52900,"intl_designator":"2022-065G","name":"MIMAN","alt_names":[],"object_type":"PAYLOAD","status":"ACTIVE","operator":null,"country":"SKOR","launch_date":"2022-06-21","launch_site_code":"NSC","launch_vehicle":null,"mission":null,"orbit_class":"UNKNOWN","rcs_meters":null,"size_class":null,"mass_kg":null,"dimensions":null,"purposes":[],"wikipedia_slug":null,"has_3d_model":false,"image_url":null,"decayed_at":null,"tle_current":{"epoch":"2026-05-25T02:50:13.154784Z","epoch_age_seconds":75125,"freshness":"FRESH","line1":"1 52900U 22065G   26145.11820781  .00000465  00000+0  10258-3 0  9990","line2":"2 52900  98.2231 287.7211 0008944  97.9344 262.2872 14.61813356207075","mean_motion":14.61813356,"eccentricity":0.0008944,"inclination_deg":98.2231,"raan_deg":287.7211,"arg_perigee_deg":97.9344,"mean_anomaly_deg":262.2872,"bstar":0.00010258,"rev_number":20707,"period_min":98.507787884789,"perigee_km":681.00553131081,"apogee_km":693.6442295225,"semimajor_km":7065.4618804167,"source":"CELESTRAK","updated_at":"2026-05-25T13:37:57.955369Z"}}}